Location: Unspecified
(0.0000°N, 0.0000°E)
Time: 06:46:13
(UTC+00:00)

N. Korean satellite - Pass Details

Date: 13 October 2019
Orbit: 455 x 508 km, 97.2° (Epoch: 14 October)

Event Time Altitude Azimuth Distance (km) Brightness Sun altitude
Rises 18:10:30 0° 195° (SSW) 2,512 10.5 -6.0°
Reaches altitude 10° 18:13:03 10° 214° (SW) 1,622 9.9 -6.6°
Maximum altitude 18:15:28 18° 259° (WSW) 1,209 10.0 -7.2°
Drops below altitude 10° 18:17:51 10° 303° (WNW) 1,600 10.0 -7.8°
Sets 18:20:20 0° 323° (NW) 2,463 10.6 -8.4°
